TimeWST,TemperatureF,Dew PointF,Humidity,Sea Level PressureIn,VisibilityMPH,Wind Direction,Wind SpeedMPH,Gust SpeedMPH,PrecipitationIn,Events,Conditions,WindDirDegrees,DateUTC
12:00 AM,82,76,78,29.82,,SSW,5.8,,,,,210,2014-03-24 16:00:00
12:00 AM,82.4,77.0,84,29.80,6.2,SSW,5.8,-,N/A,,Unknown,210,2014-03-24 16:00:00
12:30 AM,82.4,77.0,84,29.80,6.2,SW,4.6,-,N/A,,Unknown,220,2014-03-24 16:30:00
1:00 AM,82.4,77.0,84,29.80,6.2,South,3.5,-,N/A,,Unknown,190,2014-03-24 17:00:00
1:30 AM,80.6,75.2,84,29.80,6.2,Calm,Calm,-,N/A,,Unknown,0,2014-03-24 17:30:00
2:00 AM,80,75,81,29.81,,Calm,Calm,,,,,,2014-03-24 18:00:00
2:00 AM,80.6,75.2,84,29.80,6.2,Calm,Calm,-,N/A,,Unknown,0,2014-03-24 18:00:00
2:30 AM,80.6,75.2,84,29.80,6.2,SSE,5.8,-,N/A,,Unknown,160,2014-03-24 18:30:00
3:00 AM,80,76,83,29.80,,South,4.6,,,,,170,2014-03-24 19:00:00
3:00 AM,80.6,75.2,84,29.80,6.2,South,4.6,-,N/A,,Unknown,170,2014-03-24 19:00:00
3:30 AM,78.8,75.2,89,29.77,6.2,SSE,5.8,-,N/A,,Unknown,160,2014-03-24 19:30:00
4:00 AM,78.8,75.2,89,29.77,6.2,Calm,Calm,-,N/A,,Unknown,0,2014-03-24 20:00:00
4:30 AM,78.8,75.2,89,29.80,6.2,Calm,Calm,-,N/A,,Unknown,0,2014-03-24 20:30:00
5:00 AM,78,75,89,29.81,,ESE,4.6,,,,,110,2014-03-24 21:00:00
5:00 AM,78.8,75.2,89,29.80,6.2,ESE,4.6,-,N/A,,Unknown,110,2014-03-24 21:00:00
5:30 AM,78.8,75.2,89,29.83,6.2,ESE,3.5,-,N/A,,Unknown,110,2014-03-24 21:30:00
6:00 AM,77,75,92,29.83,19,ESE,4.6,,,,Partly Cloudy,110,2014-03-24 22:00:00
6:00 AM,77.0,75.2,94,29.83,-9999.0,ESE,4.6,-,N/A,,Clear,110,2014-03-24 22:00:00
6:30 AM,78.8,77.0,94,29.83,-9999.0,Calm,Calm,-,N/A,,Clear,0,2014-03-24 22:30:00
7:00 AM,80.6,78.8,94,29.83,6.2,Calm,Calm,-,N/A,,Mostly Cloudy,0,2014-03-24 23:00:00
7:30 AM,86.0,73.4,66,29.86,6.2,East,1.2,-,N/A,,Mostly Cloudy,90,2014-03-24 23:30:00
8:00 AM,89,71,46,29.86,,ENE,8.1,,,,,60,2014-03-25 00:00:00
8:00 AM,87.8,71.6,58,29.86,6.2,ENE,8.1,-,N/A,,Unknown,60,2014-03-25 00:00:00
8:30 AM,89.6,71.6,55,29.86,6.2,ENE,10.4,-,N/A,,Mostly Cloudy,60,2014-03-25 00:30:00
9:00 AM,92,70,38,29.87,19,ENE,10.4,,,,Partly Cloudy,60,2014-03-25 01:00:00
9:00 AM,91.4,69.8,49,29.86,-9999.0,ENE,10.4,-,N/A,,Clear,60,2014-03-25 01:00:00
9:30 AM,96.8,53.6,23,29.86,6.2,ENE,11.5,-,N/A,,Mostly Cloudy,70,2014-03-25 01:30:00
10:00 AM,98.6,48.2,18,29.83,-9999.0,East,11.5,-,N/A,,Clear,90,2014-03-25 02:00:00
10:30 AM,98.6,48.2,18,29.83,-9999.0,ESE,12.7,-,N/A,,Clear,110,2014-03-25 02:30:00
11:00 AM,100,48,10,29.83,,ESE,10.4,,,,,120,2014-03-25 03:00:00
11:00 AM,100.4,48.2,17,29.83,-9999.0,ESE,10.4,-,N/A,,Clear,120,2014-03-25 03:00:00
11:30 AM,100.4,48.2,17,29.80,-9999.0,ESE,9.2,-,N/A,,Clear,120,2014-03-25 03:30:00
12:00 PM,102,47,9,29.80,19,East,9.2,,,,Partly Cloudy,100,2014-03-25 04:00:00
12:00 PM,102.2,46.4,15,29.80,-9999.0,East,9.2,-,N/A,,Clear,90,2014-03-25 04:00:00
12:30 PM,102.2,46.4,15,29.77,-9999.0,ESE,13.8,-,N/A,,Clear,110,2014-03-25 04:30:00
1:00 PM,102.2,53.6,20,29.77,-9999.0,ENE,9.2,-,N/A,,Clear,70,2014-03-25 05:00:00
1:30 PM,104.0,46.4,14,29.74,-9999.0,East,9.2,-,N/A,,Clear,80,2014-03-25 05:30:00
2:00 PM,104,53,11,29.75,,NNE,11.5,,,,,30,2014-03-25 06:00:00
2:00 PM,104.0,53.6,19,29.74,-9999.0,NNE,11.5,-,N/A,,Clear,30,2014-03-25 06:00:00
2:30 PM,104.0,53.6,19,29.74,-9999.0,NNE,12.7,-,N/A,,Clear,20,2014-03-25 06:30:00
3:00 PM,103,55,12,29.73,19,North,13.8,,,,Partly Cloudy,10,2014-03-25 07:00:00
3:00 PM,102.2,55.4,21,29.71,-9999.0,North,13.8,-,N/A,,Clear,10,2014-03-25 07:00:00
3:30 PM,98.6,69.8,39,29.74,6.2,North,16.1,-,N/A,,Unknown,360,2014-03-25 07:30:00
4:00 PM,95.0,69.8,44,29.74,6.2,North,19.6,-,N/A,,Unknown,360,2014-03-25 08:00:00
4:30 PM,95.0,64.4,36,29.74,6.2,North,16.1,-,N/A,,Unknown,360,2014-03-25 08:30:00
5:00 PM,94,69,34,29.75,,North,12.7,,,,,350,2014-03-25 09:00:00
5:00 PM,95.0,68.0,41,29.74,6.2,North,12.7,-,N/A,,Unknown,350,2014-03-25 09:00:00
5:30 PM,91.4,71.6,52,29.74,6.2,NW,11.5,-,N/A,,Unknown,320,2014-03-25 09:30:00
6:00 PM,90,70,43,29.77,,NNW,8.1,,,,,330,2014-03-25 10:00:00
6:00 PM,89.6,69.8,52,29.77,6.2,NNW,8.1,-,N/A,,Unknown,330,2014-03-25 10:00:00
6:30 PM,87.8,73.4,62,29.77,6.2,WNW,5.8,-,N/A,,Unknown,300,2014-03-25 10:30:00
7:00 PM,87.8,73.4,62,29.80,6.2,NW,6.9,-,N/A,,Unknown,310,2014-03-25 11:00:00
7:30 PM,87.8,75.2,66,29.80,6.2,WNW,8.1,-,N/A,,Unknown,300,2014-03-25 11:30:00
8:00 PM,86,76,66,29.81,,WNW,5.8,,,,,300,2014-03-25 12:00:00
8:00 PM,86.0,77.0,74,29.80,6.2,WNW,5.8,-,N/A,,Unknown,300,2014-03-25 12:00:00
8:30 PM,84.2,77.0,79,29.83,6.2,WNW,6.9,-,N/A,,Unknown,290,2014-03-25 12:30:00
9:00 PM,84,77,73,29.83,,West,4.6,,,,,270,2014-03-25 13:00:00
9:00 PM,84.2,77.0,79,29.83,6.2,West,4.6,-,N/A,,Unknown,270,2014-03-25 13:00:00
9:30 PM,84.2,77.0,79,29.83,6.2,West,4.6,-,N/A,,Unknown,270,2014-03-25 13:30:00
10:00 PM,82.4,77.0,84,29.83,6.2,SW,5.8,-,N/A,,Unknown,230,2014-03-25 14:00:00
10:30 PM,82.4,77.0,84,29.83,6.2,WSW,5.8,-,N/A,,Unknown,240,2014-03-25 14:30:00
11:00 PM,83,78,80,29.85,,SW,1.2,,,,,220,2014-03-25 15:00:00
11:00 PM,82.4,77.0,84,29.83,6.2,SW,1.2,-,N/A,,Unknown,220,2014-03-25 15:00:00
11:30 PM,82.4,77.0,84,29.83,6.2,SW,4.6,-,N/A,,Unknown,220,2014-03-25 15:30:00